| time (UTC) | temp F | wind direction | speed MPH | gust MPH | rain 1hr in | rain 24hr in | rain mn in | humidity % | barometer mb |
| 20260901231012 | 63 | 0 | 0.0 | 0.0 | 0.00 | 0.03 | 0.03 | 92 | 1018.3 |
| 20260901225332 | 63 | 279 | 0.0 | 1.0 | 0.00 | 0.03 | 0.03 | 91 | 1018.2 |
| 20260901223652 | 63 | 0 | 0.0 | 0.0 | 0.00 | 0.03 | 0.03 | 91 | 1018.1 |
| 20260901222012 | 64 | 279 | 0.0 | 1.0 | 0.00 | 0.03 | 0.03 | 90 | 1018.3 |
| 20260901220332 | 64 | 279 | 0.0 | 1.0 | 0.00 | 0.03 | 0.03 | 90 | 1018.6 |
| 20260901214652 | 64 | 0 | 0.0 | 0.0 | 0.00 | 0.03 | 0.03 | 89 | 1018.5 |
| 20260901213012 | 64 | 279 | 0.0 | 1.0 | 0.00 | 0.03 | 0.03 | 88 | 1018.5 |
| 20260901211332 | 65 | 279 | 0.0 | 1.0 | 0.00 | 0.03 | 0.03 | 88 | 1018.3 |
| 20260901205652 | 65 | 159 | 0.0 | 1.0 | 0.00 | 0.03 | 0.03 | 88 | 1018.0 |
| 20260901204012 | 64 | 134 | 0.0 | 2.0 | 0.00 | 0.03 | 0.03 | 88 | 1017.8 |
| 20260901202332 | 64 | 114 | 0.0 | 2.0 | 0.00 | 0.03 | 0.03 | 87 | 1017.8 |
| 20260901200652 | 64 | 130 | 0.0 | 3.0 | 0.00 | 0.03 | 0.03 | 87 | 1017.6 |
| 20260901195012 | 64 | 244 | 0.0 | 2.0 | 0.00 | 0.03 | 0.03 | 87 | 1017.8 |
| 20260901193332 | 64 | 112 | 1.0 | 3.0 | 0.00 | 0.03 | 0.03 | 86 | 1017.7 |
| 20260901191652 | 64 | 221 | 0.0 | 3.0 | 0.01 | 0.03 | 0.03 | 86 | 1017.5 |
| 20260901190012 | 64 | 171 | 1.0 | 2.0 | 0.01 | 0.03 | 0.03 | 85 | 1017.5 |
| 20260901184332 | 65 | 233 | 1.0 | 4.0 | 0.01 | 0.03 | 0.03 | 85 | 1017.6 |
| 20260901182652 | 66 | 138 | 1.0 | 3.0 | 0.01 | 0.03 | 0.03 | 85 | 1017.6 |
| 20260901181012 | 67 | 109 | 1.0 | 4.0 | 0.00 | 0.02 | 0.02 | 83 | 1017.3 |
| 20260901175332 | 68 | 191 | 1.0 | 4.0 | 0.00 | 0.02 | 0.02 | 81 | 1017.1 |
| 20260901173652 | 69 | 162 | 0.0 | 3.0 | 0.00 | 0.02 | 0.02 | 82 | 1017.1 |
| 20260901172012 | 70 | 153 | 0.0 | 2.0 | 0.00 | 0.02 | 0.02 | 81 | 1017.1 |
| 20260901170332 | 69 | 153 | 0.0 | 1.0 | 0.00 | 0.02 | 0.02 | 82 | 1017.3 |
| 20260901164652 | 70 | 119 | 0.0 | 2.0 | 0.00 | 0.02 | 0.02 | 81 | 1017.0 |
| 20260901163012 | 69 | 149 | 0.0 | 3.0 | 0.00 | 0.02 | 0.02 | 85 | 1016.9 |
| 20260901161332 | 69 | 95 | 1.0 | 2.0 | 0.00 | 0.02 | 0.02 | 87 | 1017.0 |
| 20260901155652 | 69 | 76 | 1.0 | 2.0 | 0.00 | 0.02 | 0.02 | 88 | 1017.0 |
| 20260901154012 | 69 | 76 | 0.0 | 2.0 | 0.00 | 0.02 | 0.02 | 88 | 1017.2 |
| 20260901152332 | 69 | 76 | 0.0 | 1.0 | 0.00 | 0.02 | 0.02 | 88 | 1017.4 |
| 20260901150652 | 69 | 76 | 0.0 | 1.0 | 0.00 | 0.02 | 0.02 | 89 | 1017.5 |
| 20260901145012 | 68 | 76 | 0.0 | 1.0 | 0.01 | 0.02 | 0.02 | 91 | 1017.6 |
| 20260901143332 | 68 | 101 | 1.0 | 2.0 | 0.01 | 0.02 | 0.02 | 93 | 1017.7 |
| 20260901141655 | 67 | 78 | 0.0 | 1.0 | 0.02 | 0.02 | 0.02 | 93 | 1017.6 |
| 20260901134332 | 67 | 79 | 0.0 | 2.0 | 0.01 | 0.01 | 0.01 | 92 | 1017.9 |
| 20260901131011 | 66 | 0 | 0.0 | 0.0 | 0.00 | 0.00 | 0.00 | 91 | 1017.9 |
| 20260901123652 | 66 | 0 | 0.0 | 0.0 | 0.00 | 0.00 | 0.00 | 91 | 1017.7 |
| 20260901122011 | 66 | 0 | 0.0 | 0.0 | 0.00 | 0.00 | 0.00 | 90 | 1017.7 |
| 20260901120331 | 66 | 290 | 0.0 | 2.0 | 0.00 | 0.00 | 0.00 | 91 | 1017.6 |
| 20260901114652 | 66 | 290 | 0.0 | 1.0 | 0.00 | 0.00 | 0.00 | 91 | 1017.4 |
| 20260901113011 | 65 | 290 | 0.0 | 1.0 | 0.00 | 0.00 | 0.00 | 91 | 1017.4 |
| 20260901111332 | 65 | 0 | 0.0 | 0.0 | 0.00 | 0.00 | 0.00 | 91 | 1017.4 |
| 20260901105652 | 65 | 0 | 0.0 | 0.0 | 0.00 | 0.00 | 0.00 | 91 | 1017.4 |
| 20260901104014 | 65 | 0 | 0.0 | 0.0 | 0.00 | 0.00 | 0.00 | 91 | 1017.3 |
| 20260901102331 | 65 | 0 | 0.0 | 0.0 | 0.00 | 0.00 | 0.00 | 90 | 1017.1 |
| 20260901100652 | 65 | 0 | 0.0 | 0.0 | 0.00 | 0.00 | 0.00 | 90 | 1017.0 |
| 20260901093331 | 65 | 0 | 0.0 | 0.0 | 0.00 | 0.00 | 0.00 | 89 | 1017.0 |
| 20260901090011 | 65 | 290 | 0.0 | 2.0 | 0.00 | 0.00 | 0.00 | 89 | 1017.1 |
| 20260901084331 | 65 | 290 | 0.0 | 1.0 | 0.00 | 0.00 | 0.00 | 89 | 1017.2 |
| 20260901082651 | 65 | 290 | 0.0 | 1.0 | 0.00 | 0.00 | 0.00 | 89 | 1017.5 |
| 20260901081011 | 65 | 290 | 0.0 | 1.0 | 0.00 | 0.00 | 0.00 | 89 | 1017.6 |
| 20260901075331 | 65 | 290 | 0.0 | 1.0 | 0.00 | 0.00 | 0.00 | 89 | 1017.6 |
| 20260901073651 | 65 | 287 | 0.0 | 3.0 | 0.00 | 0.00 | 0.00 | 89 | 1017.7 |
| 20260901072011 | 65 | 279 | 0.0 | 2.0 | 0.00 | 0.00 | 0.00 | 89 | 1017.7 |
| 20260901070331 | 65 | 279 | 0.0 | 1.0 | 0.00 | 0.00 | 0.00 | 89 | 1017.8 |
| 20260901064651 | 65 | 279 | 0.0 | 2.0 | 0.00 | 0.00 | 0.00 | 89 | 1018.0 |
| 20260901063011 | 65 | 279 | 0.0 | 1.0 | 0.00 | 0.00 | 0.00 | 89 | 1017.9 |
| 20260901061333 | 65 | 0 | 0.0 | 0.0 | 0.00 | 0.00 | 0.00 | 89 | 1018.0 |
| 20260901055651 | 65 | 276 | 0.0 | 2.0 | 0.00 | 0.00 | 0.00 | 89 | 1018.0 |
| 20260901054012 | 65 | 268 | 0.0 | 1.0 | 0.00 | 0.00 | 0.00 | 88 | 1017.8 |
| 20260901052331 | 65 | 301 | 0.0 | 1.0 | 0.00 | 0.00 | 0.00 | 89 | 1018.1 |
| 20260901050654 | 65 | 316 | 0.0 | 1.0 | 0.00 | 0.00 | 0.00 | 88 | 1018.2 |
| 20260901045011 | 65 | 241 | 0.0 | 2.0 | 0.00 | 0.00 | 0.00 | 88 | 1018.2 |
| 20260901043331 | 65 | 316 | 0.0 | 1.0 | 0.00 | 0.01 | 0.00 | 88 | 1018.2 |
| 20260901041651 | 65 | 286 | 0.0 | 2.0 | 0.00 | 0.01 | 0.00 | 88 | 1018.5 |
| 20260901040236 | 65 | 325 | 0.0 | 3.0 | 0.00 | 0.01 | 0.00 | 87 | 1018.3 |
| 20260901040011 | 65 | 325 | 0.0 | 3.0 | 0.00 | 0.01 | 0.00 | 87 | 1018.3 |
| 20260901034331 | 65 | 269 | 0.0 | 1.0 | 0.00 | 0.02 | 0.01 | 87 | 1018.3 |
| 20260901031017 | 66 | 286 | 0.0 | 2.0 | 0.00 | 0.24 | 0.01 | 86 | 1018.5 |
| 20260901025332 | 66 | 113 | 0.0 | 2.0 | 0.00 | 0.25 | 0.01 | 86 | 1018.4 |
| 20260901023757 | 66 | 280 | 1.0 | 3.0 | 0.00 | 0.26 | 0.01 | 85 | 1018.4 |
| 20260901023651 | 66 | 280 | 1.0 | 3.0 | 0.00 | 0.26 | 0.01 | 85 | 1018.4 |
| 20260901020334 | 66 | 326 | 1.0 | 2.0 | 0.00 | 0.26 | 0.01 | 85 | 1018.6 |
| 20260901014651 | 66 | 262 | 0.0 | 2.0 | 0.00 | 0.26 | 0.01 | 84 | 1018.7 |
| 20260901013013 | 67 | 23 | 0.0 | 1.0 | 0.00 | 0.26 | 0.01 | 85 | 1018.7 |
| 20260901011331 | 67 | 286 | 1.0 | 3.0 | 0.00 | 0.26 | 0.01 | 85 | 1018.6 |
| 20260901005655 | 67 | 244 | 1.0 | 3.0 | 0.00 | 0.26 | 0.01 | 84 | 1018.5 |
| 20260901002332 | 68 | 111 | 0.0 | 2.0 | 0.00 | 0.26 | 0.01 | 84 | 1018.6 |
| 20260901000653 | 68 | 111 | 0.0 | 1.0 | 0.00 | 0.26 | 0.01 | 82 | 1018.6 |
| 20260831235011 | 68 | 111 | 0.0 | 1.0 | 0.00 | 0.26 | 0.01 | 81 | 1018.5 |
| 20260831233332 | 68 | 111 | 0.0 | 1.0 | 0.00 | 0.26 | 0.01 | 79 | 1018.6 |
| 20260831231652 | 68 | 132 | 0.0 | 2.0 | 0.00 | 0.26 | 0.01 | 78 | 1018.6 |